Time,TemperatureF,DewpointF,PressureIn,WindDirection,WindDirectionDegrees,WindSpeedMPH,WindSpeedGustMPH,Humidity,HourlyPrecipIn,Conditions,Clouds,dailyrainin,SoftwareType,DateUTC
2013-02-23 00:00:00,44.9,32.7,30.19,SSE,158,4.0,14.0,62,0.00,,,0.00,VWS V14.01,2013-02-23 08:00:00,
2013-02-23 00:30:00,44.0,32.2,30.16,SE,135,8.0,21.0,63,0.00,,,0.00,VWS V14.01,2013-02-23 08:30:00,
2013-02-23 01:00:00,43.6,32.6,30.15,SE,135,8.0,22.0,65,0.00,,,0.00,VWS V14.01,2013-02-23 09:00:00,
2013-02-23 01:30:00,43.3,32.7,30.12,SE,135,7.0,21.0,66,0.00,,,0.00,VWS V14.01,2013-02-23 09:30:00,
2013-02-23 02:00:00,42.8,33.0,30.11,SE,135,9.0,22.0,68,0.00,,,0.00,VWS V14.01,2013-02-23 10:00:00,
2013-02-23 02:30:00,43.0,33.5,30.13,SE,135,7.0,20.0,69,0.00,,,0.00,VWS V14.01,2013-02-23 10:30:00,
2013-02-23 03:00:00,42.4,33.7,30.12,SE,135,7.0,20.0,71,0.00,,,0.00,VWS V14.01,2013-02-23 11:00:00,
2013-02-23 03:30:00,41.9,34.6,30.12,SE,135,6.0,18.0,75,0.00,,,0.00,VWS V14.01,2013-02-23 11:30:00,
2013-02-23 04:00:00,41.3,35.3,30.12,SSE,158,3.0,15.0,79,0.00,,,0.00,VWS V14.01,2013-02-23 12:00:00,
2013-02-23 04:30:00,40.4,35.3,30.12,NW,309,0.0,5.0,82,0.00,,,0.00,VWS V15.00,2013-02-23 12:30:00,
2013-02-23 04:53:00,40.6,35.5,30.12,South,175,2.0,3.0,82,0.00,,,0.00,VWS V14.01,2013-02-23 12:53:00,
2013-02-23 04:54:00,40.6,35.5,30.12,South,182,1.0,3.0,82,0.00,,,0.00,VWS V14.01,2013-02-23 12:54:00,
2013-02-23 04:59:00,40.6,35.5,30.12,ESE,121,0.0,12.0,82,0.00,,,0.00,VWS V14.01,2013-02-23 12:59:00,
2013-02-23 05:00:00,40.6,35.5,30.12,SSW,198,1.0,12.0,82,0.00,,,0.00,VWS V14.01,2013-02-23 13:00:00,
2013-02-23 05:04:00,40.6,35.5,30.12,South,182,0.0,3.0,82,0.00,,,0.00,VWS V14.01,2013-02-23 13:04:00,
2013-02-23 05:09:00,40.6,35.5,30.11,WSW,244,0.0,5.0,82,0.00,,,0.00,VWS V14.01,2013-02-23 13:09:00,
2013-02-23 05:14:00,40.5,35.5,30.11,South,189,0.0,5.0,82,0.00,,,0.00,VWS V14.01,2013-02-23 13:14:00,
2013-02-23 05:19:00,40.5,35.5,30.11,NNE,25,0.0,5.0,82,0.00,,,0.00,VWS V14.01,2013-02-23 13:19:00,
2013-02-23 05:24:00,40.5,35.5,30.12,NW,309,0.0,5.0,82,0.00,,,0.00,VWS V14.01,2013-02-23 13:24:00,
2013-02-23 05:29:00,40.4,35.3,30.12,NW,309,0.0,5.0,82,0.00,,,0.00,VWS V14.01,2013-02-23 13:29:00,
2013-02-23 05:30:00,40.4,35.3,30.12,NW,309,0.0,5.0,82,0.00,,,0.00,VWS V14.01,2013-02-23 13:30:00,
2013-02-23 05:34:00,40.4,35.3,30.12,NW,311,0.0,1.0,82,0.00,,,0.00,VWS V14.01,2013-02-23 13:34:00,
2013-02-23 05:39:00,40.3,35.2,30.13,SSW,212,0.0,5.0,82,0.00,,,0.00,VWS V14.01,2013-02-23 13:39:00,
2013-02-23 05:44:00,40.2,35.5,30.13,SE,126,2.0,7.0,83,0.00,,,0.00,VWS V14.01,2013-02-23 13:44:00,
2013-02-23 05:49:00,40.1,35.4,30.13,ESE,121,0.0,7.0,83,0.00,,,0.00,VWS V14.01,2013-02-23 13:49:00,
2013-02-23 05:54:00,40.1,35.4,30.14,ESE,121,0.0,7.0,83,0.00,,,0.00,VWS V14.01,2013-02-23 13:54:00,
2013-02-23 05:59:00,40.1,35.4,30.13,SSE,168,1.0,7.0,83,0.00,,,0.00,VWS V14.01,2013-02-23 13:59:00,
2013-02-23 06:00:00,40.1,35.4,30.13,SSE,168,0.0,7.0,83,0.00,,,0.00,VWS V14.01,2013-02-23 14:00:00,
2013-02-23 06:04:00,40.1,35.4,30.14,SSE,164,0.0,5.0,83,0.00,,,0.00,VWS V14.01,2013-02-23 14:04:00,
2013-02-23 06:09:00,40.0,35.3,30.14,SE,145,0.0,5.0,83,0.00,,,0.00,VWS V14.01,2013-02-23 14:09:00,
2013-02-23 06:14:00,39.9,35.2,30.14,SSW,192,1.0,5.0,83,0.00,,,0.00,VWS V14.01,2013-02-23 14:14:00,
2013-02-23 06:19:00,39.8,35.1,30.14,South,186,0.0,5.0,83,0.00,,,0.00,VWS V14.01,2013-02-23 14:19:00,
2013-02-23 06:24:00,39.7,35.3,30.14,SSE,149,1.0,5.0,84,0.00,,,0.00,VWS V14.01,2013-02-23 14:24:00,
2013-02-23 06:29:00,39.6,35.2,30.14,SSE,149,0.0,5.0,84,0.00,,,0.00,VWS V14.01,2013-02-23 14:29:00,
2013-02-23 06:30:00,39.6,35.2,30.14,South,180,1.0,5.0,84,0.00,,,0.00,VWS V14.01,2013-02-23 14:30:00,
2013-02-23 06:34:00,39.5,35.1,30.13,South,175,3.0,5.0,84,0.00,,,0.00,VWS V14.01,2013-02-23 14:34:00,
2013-02-23 06:39:00,39.5,35.4,30.13,SSW,207,0.0,5.0,85,0.00,,,0.00,VWS V14.01,2013-02-23 14:39:00,
2013-02-23 06:44:00,39.4,35.3,30.13,SE,140,4.0,5.0,85,0.00,,,0.00,VWS V14.01,2013-02-23 14:44:00,
2013-02-23 06:49:00,39.3,35.2,30.14,SSW,209,0.0,5.0,85,0.00,,,0.00,VWS V14.01,2013-02-23 14:49:00,
2013-02-23 06:54:00,39.3,35.2,30.14,SSW,194,0.0,5.0,85,0.00,,,0.00,VWS V14.01,2013-02-23 14:54:00,
2013-02-23 06:59:00,39.3,35.2,30.15,SSW,194,0.0,5.0,85,0.00,,,0.00,VWS V14.01,2013-02-23 14:59:00,
2013-02-23 07:00:00,39.3,35.2,30.15,SSW,194,0.0,5.0,85,0.00,,,0.00,VWS V14.01,2013-02-23 15:00:00,
2013-02-23 07:04:00,39.3,35.2,30.15,SSW,194,0.0,0.0,85,0.00,,,0.00,VWS V14.01,2013-02-23 15:04:00,
2013-02-23 07:09:00,39.2,35.1,30.15,SSW,194,0.0,2.0,85,0.00,,,0.00,VWS V14.01,2013-02-23 15:09:00,
2013-02-23 07:14:00,39.2,35.4,30.15,WSW,252,0.0,4.0,86,0.00,,,0.00,VWS V14.01,2013-02-23 15:14:00,
2013-02-23 07:19:00,39.2,35.4,30.15,WSW,250,0.0,4.0,86,0.00,,,0.00,VWS V14.01,2013-02-23 15:19:00,
2013-02-23 07:24:00,39.3,35.5,30.16,WSW,250,0.0,4.0,86,0.00,,,0.00,VWS V14.01,2013-02-23 15:24:00,
2013-02-23 07:29:00,39.3,35.5,30.16,WSW,250,0.0,4.0,86,0.00,,,0.00,VWS V14.01,2013-02-23 15:29:00,
2013-02-23 07:30:00,39.3,35.5,30.16,WSW,250,0.0,4.0,86,0.00,,,0.00,VWS V14.01,2013-02-23 15:30:00,
2013-02-23 07:34:00,39.3,35.5,30.17,WSW,250,0.0,0.0,86,0.00,,,0.00,VWS V14.01,2013-02-23 15:34:00,
2013-02-23 07:39:00,39.3,35.5,30.17,WSW,250,0.0,0.0,86,0.00,,,0.00,VWS V14.01,2013-02-23 15:39:00,
2013-02-23 07:44:00,39.4,35.6,30.17,WSW,250,0.0,0.0,86,0.00,,,0.00,VWS V14.01,2013-02-23 15:44:00,
2013-02-23 07:49:00,39.5,35.7,30.17,WSW,250,0.0,0.0,86,0.00,,,0.00,VWS V14.01,2013-02-23 15:49:00,
2013-02-23 07:54:00,39.5,35.4,30.17,WSW,250,0.0,0.0,85,0.00,,,0.00,VWS V14.01,2013-02-23 15:54:00,
2013-02-23 07:59:00,39.6,35.5,30.18,WSW,250,0.0,1.0,85,0.00,,,0.00,VWS V14.01,2013-02-23 15:59:00,
2013-02-23 08:00:00,39.6,35.5,30.18,WSW,250,0.0,1.0,85,0.00,,,0.00,VWS V14.01,2013-02-23 16:00:00,
2013-02-23 08:04:00,39.7,35.6,30.17,WSW,250,0.0,0.0,85,0.00,,,0.00,VWS V14.01,2013-02-23 16:04:00,
2013-02-23 08:09:00,39.8,35.7,30.17,WSW,250,0.0,0.0,85,0.00,,,0.00,VWS V14.01,2013-02-23 16:09:00,
2013-02-23 08:14:00,39.9,35.8,30.18,WSW,250,0.0,0.0,85,0.00,,,0.00,VWS V14.01,2013-02-23 16:14:00,
2013-02-23 08:19:00,40.0,35.6,30.18,WSW,250,0.0,0.0,84,0.00,,,0.00,VWS V14.01,2013-02-23 16:19:00,
2013-02-23 08:24:00,40.0,35.6,30.18,WNW,299,0.0,3.0,84,0.00,,,0.00,VWS V14.01,2013-02-23 16:24:00,
2013-02-23 08:29:00,40.0,35.6,30.18,NW,317,1.0,4.0,84,0.00,,,0.00,VWS V14.01,2013-02-23 16:29:00,
2013-02-23 08:30:00,40.0,35.6,30.18,NW,317,0.0,4.0,84,0.00,,,0.00,VWS V14.01,2013-02-23 16:30:00,
2013-02-23 08:34:00,40.0,35.6,30.18,NW,317,1.0,1.0,84,0.00,,,0.00,VWS V14.01,2013-02-23 16:34:00,
2013-02-23 08:39:00,39.9,35.5,30.19,North,355,0.0,5.0,84,0.00,,,0.00,VWS V14.01,2013-02-23 16:39:00,
2013-02-23 08:44:00,39.8,35.4,30.19,WSW,254,0.0,5.0,84,0.00,,,0.00,VWS V14.01,2013-02-23 16:44:00,
2013-02-23 08:49:00,40.0,35.6,30.18,WSW,254,0.0,5.0,84,0.00,,,0.00,VWS V14.01,2013-02-23 16:49:00,
2013-02-23 08:54:00,40.7,36.0,30.18,North,355,0.0,6.0,83,0.00,,,0.00,VWS V14.01,2013-02-23 16:54:00,
2013-02-23 08:59:00,41.2,35.8,30.18,WNW,290,0.0,6.0,81,0.00,,,0.00,VWS V14.01,2013-02-23 16:59:00,
2013-02-23 09:00:00,41.3,35.6,30.19,WNW,290,0.0,6.0,80,0.00,,,0.00,VWS V14.01,2013-02-23 17:00:00,
2013-02-23 09:04:00,41.5,35.5,30.18,SE,137,2.0,5.0,79,0.00,,,0.00,VWS V14.01,2013-02-23 17:04:00,
2013-02-23 09:09:00,41.1,35.1,30.19,WSW,240,4.0,7.0,79,0.00,,,0.00,VWS V14.01,2013-02-23 17:09:00,
2013-02-23 09:14:00,40.8,34.8,30.19,WSW,240,0.0,7.0,79,0.00,,,0.00,VWS V14.01,2013-02-23 17:14:00,
2013-02-23 09:19:00,40.8,34.8,30.18,WSW,240,0.0,7.0,79,0.00,,,0.00,VWS V14.01,2013-02-23 17:19:00,
2013-02-23 09:24:00,41.2,35.2,30.18,NW,324,6.0,7.0,79,0.00,,,0.00,VWS V14.01,2013-02-23 17:24:00,
2013-02-23 09:29:00,41.5,35.2,30.18,South,186,3.0,7.0,78,0.00,,,0.00,VWS V14.01,2013-02-23 17:29:00,
2013-02-23 09:30:00,41.6,34.9,30.18,SW,216,5.0,7.0,77,0.00,,,0.00,VWS V14.01,2013-02-23 17:30:00,
2013-02-23 09:34:00,41.5,34.5,30.18,SW,236,0.0,7.0,76,0.00,,,0.00,VWS V14.01,2013-02-23 17:34:00,
2013-02-23 09:39:00,41.9,34.9,30.18,SW,222,3.0,7.0,76,0.00,,,0.00,VWS V14.01,2013-02-23 17:39:00,
2013-02-23 09:44:00,42.2,35.2,30.18,SW,219,2.0,7.0,76,0.00,,,0.00,VWS V14.01,2013-02-23 17:44:00,
2013-02-23 09:49:00,43.3,35.2,30.18,WNW,302,0.0,7.0,73,0.00,,,0.00,VWS V14.01,2013-02-23 17:49:00,
2013-02-23 09:54:00,43.3,35.2,30.18,West,265,0.0,7.0,73,0.00,,,0.00,VWS V14.01,2013-02-23 17:54:00,
2013-02-23 09:59:00,42.9,34.2,30.18,WSW,246,1.0,7.0,71,0.00,,,0.00,VWS V14.01,2013-02-23 17:59:00,
2013-02-23 10:00:00,42.8,34.1,30.18,SW,217,5.0,7.0,71,0.00,,,0.00,VWS V14.01,2013-02-23 18:00:00,
2013-02-23 10:04:00,42.4,34.4,30.19,SW,217,0.0,5.0,73,0.00,,,0.00,VWS V14.01,2013-02-23 18:04:00,
2013-02-23 10:09:00,42.4,34.4,30.18,West,265,0.0,5.0,73,0.00,,,0.00,VWS V14.01,2013-02-23 18:09:00,
2013-02-23 10:14:00,43.1,34.3,30.19,West,270,0.0,5.0,71,0.00,,,0.00,VWS V14.01,2013-02-23 18:14:00,
2013-02-23 10:19:00,43.8,34.7,30.19,SW,236,0.0,5.0,70,0.00,,,0.00,VWS V14.01,2013-02-23 18:19:00,
2013-02-23 10:24:00,45.0,34.7,30.18,North,5,1.0,5.0,67,0.00,,,0.00,VWS V14.01,2013-02-23 18:24:00,
2013-02-23 10:29:00,45.5,34.8,30.18,SW,236,0.0,5.0,66,0.00,,,0.00,VWS V14.01,2013-02-23 18:29:00,
2013-02-23 10:30:00,45.6,34.9,30.18,WSW,245,0.0,5.0,66,0.00,,,0.00,VWS V14.01,2013-02-23 18:30:00,
2013-02-23 10:35:00,45.9,34.8,30.18,North,360,0.0,5.0,65,0.00,,,0.00,VWS V14.01,2013-02-23 18:35:00,
2013-02-23 10:40:00,45.1,33.3,30.19,West,267,0.0,7.0,63,0.00,,,0.00,VWS V14.01,2013-02-23 18:40:00,
2013-02-23 10:45:00,44.6,32.4,30.18,NNE,30,0.0,7.0,62,0.00,,,0.00,VWS V14.01,2013-02-23 18:45:00,
2013-02-23 10:50:00,44.5,31.1,30.18,West,267,0.0,7.0,59,0.00,,,0.00,VWS V14.01,2013-02-23 18:50:00,
2013-02-23 10:55:00,44.9,31.9,30.18,WNW,303,0.0,7.0,60,0.00,,,0.00,VWS V14.01,2013-02-23 18:55:00,
2013-02-23 11:00:00,46.0,32.1,30.18,WSW,256,2.0,7.0,58,0.00,,,0.00,VWS V14.01,2013-02-23 19:00:00,
2013-02-23 11:05:00,46.4,32.0,30.17,WNW,285,3.0,6.0,57,0.00,,,0.00,VWS V14.01,2013-02-23 19:05:00,
2013-02-23 11:11:00,46.2,31.8,30.17,West,278,1.0,1.0,57,0.00,,,0.00,VWS V14.01,2013-02-23 19:11:00,
2013-02-23 11:16:00,45.4,31.5,30.17,West,263,0.0,7.0,58,0.00,,,0.00,VWS V14.01,2013-02-23 19:16:00,
2013-02-23 11:21:00,46.2,30.9,30.17,SSE,159,6.0,7.0,55,0.00,,,0.00,VWS V14.01,2013-02-23 19:21:00,
2013-02-23 11:26:00,47.2,31.4,30.17,SSW,211,0.0,7.0,54,0.00,,,0.00,VWS V14.01,2013-02-23 19:26:00,
2013-02-23 11:30:00,47.6,31.3,30.17,West,271,1.0,7.0,53,0.00,,,0.00,VWS V14.01,2013-02-23 19:30:00,
2013-02-23 11:31:00,47.6,30.9,30.17,West,263,2.0,4.0,52,0.00,,,0.00,VWS V14.01,2013-02-23 19:31:00,
2013-02-23 11:36:00,48.0,31.2,30.18,WNW,287,4.0,5.0,52,0.00,,,0.00,VWS V14.01,2013-02-23 19:36:00,
2013-02-23 11:41:00,48.0,31.7,30.17,WSW,258,0.0,9.0,53,0.00,,,0.00,VWS V14.01,2013-02-23 19:41:00,
2013-02-23 11:46:00,47.9,31.6,30.18,West,281,1.0,9.0,53,0.00,,,0.00,VWS V14.01,2013-02-23 19:46:00,
2013-02-23 11:51:00,48.3,32.0,30.17,NNE,29,0.0,10.0,53,0.00,,,0.00,VWS V14.01,2013-02-23 19:51:00,
2013-02-23 11:56:00,48.0,32.2,30.17,North,350,0.0,10.0,54,0.00,,,0.00,VWS V14.01,2013-02-23 19:56:00,
2013-02-23 12:00:00,48.3,32.0,30.17,SSE,167,3.0,10.0,53,0.00,,,0.00,VWS V14.01,2013-02-23 20:00:00,
2013-02-23 12:02:00,48.7,32.8,30.17,SE,141,0.0,2.0,54,0.00,,,0.00,VWS V14.01,2013-02-23 20:02:00,
2013-02-23 12:07:00,48.2,31.9,30.17,SSW,208,3.0,6.0,53,0.00,,,0.00,VWS V14.01,2013-02-23 20:07:00,
2013-02-23 12:12:00,47.3,32.0,30.16,SSW,202,1.0,9.0,55,0.00,,,0.00,VWS V14.01,2013-02-23 20:12:00,
2013-02-23 12:17:00,47.4,31.1,30.16,WNW,293,10.0,10.0,53,0.00,,,0.00,VWS V14.01,2013-02-23 20:17:00,
2013-02-23 12:22:00,47.7,31.9,30.16,NW,309,1.0,10.0,54,0.00,,,0.00,VWS V14.01,2013-02-23 20:22:00,
2013-02-23 12:27:00,48.7,31.9,30.16,North,355,0.0,10.0,52,0.00,,,0.00,VWS V14.01,2013-02-23 20:27:00,
2013-02-23 12:30:00,48.7,31.9,30.16,SSW,212,5.0,10.0,52,0.00,,,0.00,VWS V14.01,2013-02-23 20:30:00,
2013-02-23 12:32:00,48.3,31.5,30.16,SW,217,5.0,8.0,52,0.00,,,0.00,VWS V14.01,2013-02-23 20:32:00,
2013-02-23 12:37:00,47.1,31.3,30.16,SW,227,6.0,12.0,54,0.00,,,0.00,VWS V14.01,2013-02-23 20:37:00,
2013-02-23 12:43:00,47.3,31.0,30.16,West,264,0.0,12.0,53,0.00,,,0.00,VWS V14.01,2013-02-23 20:43:00,
2013-02-23 12:48:00,47.1,30.9,30.16,NW,313,5.0,12.0,53,0.00,,,0.00,VWS V14.01,2013-02-23 20:48:00,
2013-02-23 12:53:00,47.3,31.0,30.16,SW,225,1.0,12.0,53,0.00,,,0.00,VWS V14.01,2013-02-23 20:53:00,
2013-02-23 12:58:00,47.2,31.0,30.15,West,271,3.0,12.0,53,0.00,,,0.00,VWS V14.01,2013-02-23 20:58:00,
2013-02-23 13:00:00,47.3,31.0,30.15,WNW,291,8.0,12.0,53,0.00,,,0.00,VWS V14.01,2013-02-23 21:00:00,
2013-02-23 13:03:00,47.2,31.0,30.15,SSW,205,4.0,8.0,53,0.00,,,0.00,VWS V14.01,2013-02-23 21:03:00,
2013-02-23 13:08:00,47.6,30.9,30.15,North,349,0.0,8.0,52,0.00,,,0.00,VWS V14.01,2013-02-23 21:08:00,
2013-02-23 13:13:00,47.6,29.9,30.15,West,267,5.0,11.0,50,0.00,,,0.00,VWS V14.01,2013-02-23 21:13:00,
2013-02-23 13:18:00,47.4,29.7,30.15,SSW,203,2.0,11.0,50,0.00,,,0.00,VWS V14.01,2013-02-23 21:18:00,
2013-02-23 13:23:00,47.5,29.8,30.15,West,259,3.0,11.0,50,0.00,,,0.00,VWS V14.01,2013-02-23 21:23:00,
2013-02-23 13:28:00,47.3,29.6,30.15,South,187,5.0,11.0,50,0.00,,,0.00,VWS V14.01,2013-02-23 21:28:00,
2013-02-23 13:30:00,46.9,28.8,30.15,WSW,241,0.0,11.0,49,0.00,,,0.00,VWS V14.01,2013-02-23 21:30:00,
2013-02-23 13:33:00,46.8,29.2,30.15,NNE,22,5.0,8.0,50,0.00,,,0.00,VWS V14.01,2013-02-23 21:33:00,
2013-02-23 13:38:00,47.0,28.9,30.14,NW,326,0.0,12.0,49,0.00,,,0.00,VWS V14.01,2013-02-23 21:38:00,
2013-02-23 13:43:00,47.8,28.0,30.14,West,273,0.0,12.0,46,0.00,,,0.00,VWS V14.01,2013-02-23 21:43:00,
2013-02-23 13:48:00,48.5,27.6,30.14,NW,315,4.0,12.0,44,0.00,,,0.00,VWS V14.01,2013-02-23 21:48:00,
2013-02-23 13:53:00,48.2,27.3,30.14,NW,324,5.0,12.0,44,0.00,,,0.00,VWS V14.01,2013-02-23 21:53:00,
2013-02-23 13:58:00,48.1,27.2,30.14,SSW,196,7.0,13.0,44,0.00,,,0.00,VWS V14.01,2013-02-23 21:58:00,
2013-02-23 14:00:00,51.0,25.0,30.14,SW,216,4.0,12.0,36,0.00,,,0.00,VWS V15.00,2013-02-23 22:00:00,
2013-02-23 14:03:00,47.8,25.8,30.14,NNW,329,9.0,9.0,42,0.00,,,0.00,VWS V14.01,2013-02-23 22:03:00,
2013-02-23 14:08:00,48.5,26.5,30.14,WSW,250,3.0,9.0,42,0.00,,,0.00,VWS V14.01,2013-02-23 22:08:00,
2013-02-23 14:13:00,48.9,26.2,30.14,WNW,297,0.0,12.0,41,0.00,,,0.00,VWS V14.01,2013-02-23 22:13:00,
2013-02-23 14:18:00,49.1,26.4,30.14,NE,41,0.0,12.0,41,0.00,,,0.00,VWS V14.01,2013-02-23 22:18:00,
2013-02-23 14:23:00,49.1,24.0,30.14,NNW,337,6.0,12.0,37,0.00,,,0.00,VWS V14.01,2013-02-23 22:23:00,
2013-02-23 14:28:00,48.8,24.3,30.14,West,274,0.0,12.0,38,0.00,,,0.00,VWS V14.01,2013-02-23 22:28:00,
2013-02-23 14:30:00,48.9,25.0,30.14,WNW,284,6.0,12.0,39,0.00,,,0.00,VWS V14.01,2013-02-23 22:30:00,
2013-02-23 14:33:00,49.0,24.5,30.14,SSW,205,0.0,9.0,38,0.00,,,0.00,VWS V14.01,2013-02-23 22:33:00,
2013-02-23 14:38:00,50.3,25.0,30.14,NW,317,1.0,9.0,37,0.00,,,0.00,VWS V14.01,2013-02-23 22:38:00,
2013-02-23 14:43:00,51.4,25.4,30.14,NE,45,7.0,9.0,36,0.00,,,0.00,VWS V14.01,2013-02-23 22:43:00,
2013-02-23 14:48:00,51.2,24.5,30.14,North,350,1.0,12.0,35,0.00,,,0.00,VWS V14.01,2013-02-23 22:48:00,
2013-02-23 14:53:00,50.8,24.8,30.14,North,355,0.0,12.0,36,0.00,,,0.00,VWS V14.01,2013-02-23 22:53:00,
2013-02-23 14:58:00,51.0,24.3,30.14,NE,34,4.0,12.0,35,0.00,,,0.00,VWS V14.01,2013-02-23 22:58:00,
2013-02-23 15:00:00,51.0,25.0,30.14,SW,216,4.0,12.0,36,0.00,,,0.00,VWS V14.01,2013-02-23 23:00:00,
2013-02-23 15:03:00,50.8,24.8,30.14,NNW,344,0.0,10.0,36,0.00,,,0.00,VWS V14.01,2013-02-23 23:03:00,
2013-02-23 15:08:00,50.7,24.7,30.14,NE,36,0.0,10.0,36,0.00,,,0.00,VWS V14.01,2013-02-23 23:08:00,
2013-02-23 15:13:00,51.2,25.8,30.13,NNW,330,6.0,10.0,37,0.00,,,0.00,VWS V14.01,2013-02-23 23:13:00,
2013-02-23 15:18:00,51.1,25.1,30.14,NE,35,1.0,10.0,36,0.00,,,0.00,VWS V14.01,2013-02-23 23:18:00,
2013-02-23 15:23:00,50.5,24.6,30.13,North,9,0.0,10.0,36,0.00,,,0.00,VWS V14.01,2013-02-23 23:23:00,
2013-02-23 15:28:00,50.1,23.5,30.13,SSW,207,2.0,10.0,35,0.00,,,0.00,VWS V14.01,2013-02-23 23:28:00,
2013-02-23 15:30:00,49.7,23.9,30.12,NNW,344,3.0,11.0,36,0.00,,,0.00,VWS V14.01,2013-02-23 23:30:00,
2013-02-23 15:33:00,49.8,24.6,30.13,NNW,339,0.0,6.0,37,0.00,,,0.00,VWS V14.01,2013-02-23 23:33:00,
2013-02-23 15:38:00,50.2,23.6,30.13,WSW,242,0.0,7.0,35,0.00,,,0.00,VWS V14.01,2013-02-23 23:38:00,
2013-02-23 15:43:00,50.4,23.8,30.13,WNW,295,0.0,9.0,35,0.00,,,0.00,VWS V14.01,2013-02-23 23:43:00,
2013-02-23 15:49:00,50.3,25.0,30.13,SW,217,0.0,9.0,37,0.00,,,0.00,VWS V14.01,2013-02-23 23:49:00,
2013-02-23 15:54:00,49.9,23.4,30.14,West,271,5.0,9.0,35,0.00,,,0.00,VWS V14.01,2013-02-23 23:54:00,
2013-02-23 15:59:00,49.6,23.8,30.14,WSW,243,0.0,9.0,36,0.00,,,0.00,VWS V14.01,2013-02-23 23:59:00,
2013-02-23 16:00:00,49.5,24.3,30.14,ENE,69,1.0,9.0,37,0.00,,,0.00,VWS V14.01,2013-02-24 00:00:00,
2013-02-23 16:04:00,49.3,23.5,30.14,SW,236,0.0,7.0,36,0.00,,,0.00,VWS V14.01,2013-02-24 00:04:00,
2013-02-23 16:09:00,49.1,24.0,30.14,SSW,213,0.0,10.0,37,0.00,,,0.00,VWS V14.01,2013-02-24 00:09:00,
2013-02-23 16:14:00,49.4,22.9,30.14,West,271,0.0,10.0,35,0.00,,,0.00,VWS V14.01,2013-02-24 00:14:00,
2013-02-23 16:19:00,49.5,23.7,30.14,WSW,238,1.0,10.0,36,0.00,,,0.00,VWS V14.01,2013-02-24 00:19:00,
2013-02-23 16:24:00,49.7,23.9,30.14,NNE,17,0.0,10.0,36,0.00,,,0.00,VWS V14.01,2013-02-24 00:24:00,
2013-02-23 16:29:00,50.0,23.4,30.14,NE,41,7.0,10.0,35,0.00,,,0.00,VWS V14.01,2013-02-24 00:29:00,
2013-02-23 16:30:00,50.0,22.8,30.14,WNW,287,3.0,10.0,34,0.00,,,0.00,VWS V14.01,2013-02-24 00:30:00,
2013-02-23 16:34:00,49.7,22.5,30.14,NW,307,0.0,6.0,34,0.00,,,0.00,VWS V14.01,2013-02-24 00:34:00,
2013-02-23 16:39:00,49.2,22.7,30.14,WNW,294,2.0,9.0,35,0.00,,,0.00,VWS V14.01,2013-02-24 00:39:00,
2013-02-23 16:44:00,49.0,23.2,30.14,NW,323,0.0,9.0,36,0.00,,,0.00,VWS V14.01,2013-02-24 00:44:00,
2013-02-23 16:49:00,48.9,22.5,30.14,WNW,284,6.0,9.0,35,0.00,,,0.00,VWS V14.01,2013-02-24 00:49:00,
2013-02-23 16:54:00,48.8,23.0,30.14,North,351,0.0,9.0,36,0.00,,,0.00,VWS V14.01,2013-02-24 00:54:00,
2013-02-23 16:59:00,48.9,22.5,30.14,WSW,254,2.0,9.0,35,0.00,,,0.00,VWS V14.01,2013-02-24 00:59:00,
2013-02-23 17:00:00,48.6,22.2,30.14,SSW,211,1.0,9.0,35,0.00,,,0.00,VWS V14.01,2013-02-24 01:00:00,
2013-02-23 17:04:00,48.3,22.6,30.14,SSW,211,0.0,1.0,36,0.00,,,0.00,VWS V14.01,2013-02-24 01:04:00,
2013-02-23 17:09:00,47.9,22.9,30.14,NNW,338,1.0,1.0,37,0.00,,,0.00,VWS V14.01,2013-02-24 01:09:00,
2013-02-23 17:14:00,47.5,23.2,30.15,WNW,290,4.0,4.0,38,0.00,,,0.00,VWS V14.01,2013-02-24 01:14:00,
2013-02-23 17:19:00,46.9,22.0,30.15,West,275,0.0,5.0,37,0.00,,,0.00,VWS V14.01,2013-02-24 01:19:00,
2013-02-23 17:24:00,46.4,21.6,30.15,West,275,0.0,5.0,37,0.00,,,0.00,VWS V14.01,2013-02-24 01:24:00,
2013-02-23 17:29:00,46.0,23.6,30.15,West,275,0.0,5.0,41,0.00,,,0.00,VWS V14.01,2013-02-24 01:29:00,
2013-02-23 17:30:00,45.9,22.4,30.16,West,275,0.0,5.0,39,0.00,,,0.00,VWS V14.01,2013-02-24 01:30:00,
2013-02-23 17:34:00,45.8,22.3,30.16,WNW,288,0.0,1.0,39,0.00,,,0.00,VWS V14.01,2013-02-24 01:34:00,
2013-02-23 17:39:00,45.5,22.6,30.16,NE,37,1.0,2.0,40,0.00,,,0.00,VWS V14.01,2013-02-24 01:39:00,
2013-02-23 17:44:00,45.2,22.9,30.16,NNE,19,0.0,5.0,41,0.00,,,0.00,VWS V14.01,2013-02-24 01:44:00,
2013-02-23 17:49:00,45.0,23.3,30.16,NNE,19,1.0,5.0,42,0.00,,,0.00,VWS V14.01,2013-02-24 01:49:00,
2013-02-23 17:54:00,44.6,23.5,30.17,NNE,26,0.0,6.0,43,0.00,,,0.00,VWS V14.01,2013-02-24 01:54:00,
2013-02-23 17:59:00,44.2,21.4,30.17,NNE,32,1.0,7.0,40,0.00,,,0.00,VWS V14.01,2013-02-24 01:59:00,
2013-02-23 18:00:00,44.2,21.4,30.17,NNE,32,0.0,7.0,40,0.00,,,0.00,VWS V14.01,2013-02-24 02:00:00,
2013-02-23 18:04:00,44.2,19.6,30.17,NE,36,5.0,6.0,37,0.00,,,0.00,VWS V14.01,2013-02-24 02:04:00,
2013-02-23 18:09:00,44.4,18.5,30.17,NNE,17,5.0,10.0,35,0.00,,,0.00,VWS V14.01,2013-02-24 02:09:00,
2013-02-23 18:14:00,44.4,17.8,30.18,NE,43,1.0,10.0,34,0.00,,,0.00,VWS V14.01,2013-02-24 02:14:00,
2013-02-23 18:19:00,44.2,17.6,30.18,NE,36,4.0,10.0,34,0.00,,,0.00,VWS V14.01,2013-02-24 02:19:00,
2013-02-23 18:24:00,44.2,16.9,30.18,NNE,21,2.0,10.0,33,0.00,,,0.00,VWS V14.01,2013-02-24 02:24:00,
2013-02-23 18:29:00,44.0,17.5,30.18,NE,36,0.0,10.0,34,0.00,,,0.00,VWS V14.01,2013-02-24 02:29:00,
2013-02-23 18:30:00,44.0,17.5,30.18,NE,38,0.0,10.0,34,0.00,,,0.00,VWS V14.01,2013-02-24 02:30:00,
2013-02-23 18:34:00,43.9,17.4,30.18,NE,36,2.0,4.0,34,0.00,,,0.00,VWS V14.01,2013-02-24 02:34:00,
2013-02-23 18:39:00,43.6,17.1,30.19,NNE,24,2.0,6.0,34,0.00,,,0.00,VWS V14.01,2013-02-24 02:39:00,
2013-02-23 18:44:00,43.3,17.5,30.19,NNE,33,2.0,6.0,35,0.00,,,0.00,VWS V14.01,2013-02-24 02:44:00,
2013-02-23 18:49:00,43.1,17.3,30.19,NNE,33,3.0,7.0,35,0.00,,,0.00,VWS V14.01,2013-02-24 02:49:00,
2013-02-23 18:54:00,42.7,17.0,30.20,NNE,28,0.0,7.0,35,0.00,,,0.00,VWS V14.01,2013-02-24 02:54:00,
2013-02-23 18:59:00,42.5,17.4,30.20,NNE,23,6.0,7.0,36,0.00,,,0.00,VWS V14.01,2013-02-24 02:59:00,
2013-02-23 19:00:00,42.4,17.4,30.19,NNE,32,0.0,7.0,36,0.00,,,0.00,VWS V14.01,2013-02-24 03:00:00,
2013-02-23 19:04:00,42.2,17.2,30.20,NE,49,0.0,9.0,36,0.00,,,0.00,VWS V14.01,2013-02-24 03:04:00,
2013-02-23 19:09:00,42.2,17.2,30.20,NNE,32,2.0,9.0,36,0.00,,,0.00,VWS V14.01,2013-02-24 03:09:00,
2013-02-23 19:14:00,42.0,17.0,30.20,NE,48,2.0,9.0,36,0.00,,,0.00,VWS V14.01,2013-02-24 03:14:00,
2013-02-23 19:19:00,41.8,16.8,30.20,NNE,17,2.0,9.0,36,0.00,,,0.00,VWS V14.01,2013-02-24 03:19:00,
2013-02-23 19:24:00,41.6,16.6,30.19,NE,44,2.0,9.0,36,0.00,,,0.00,VWS V14.01,2013-02-24 03:24:00,
2013-02-23 19:29:00,41.5,16.5,30.20,NNE,33,2.0,9.0,36,0.00,,,0.00,VWS V14.01,2013-02-24 03:29:00,
2013-02-23 19:30:00,41.5,16.5,30.20,NNE,33,0.0,9.0,36,0.00,,,0.00,VWS V14.01,2013-02-24 03:30:00,
2013-02-23 19:34:00,41.5,15.9,30.20,NNE,14,2.0,5.0,35,0.00,,,0.00,VWS V14.01,2013-02-24 03:34:00,
2013-02-23 19:39:00,41.4,15.8,30.21,NNE,33,2.0,10.0,35,0.00,,,0.00,VWS V14.01,2013-02-24 03:39:00,
2013-02-23 19:44:00,41.2,15.6,30.20,NE,34,2.0,10.0,35,0.00,,,0.00,VWS V14.01,2013-02-24 03:44:00,
2013-02-23 19:49:00,41.1,14.9,30.21,NE,37,3.0,10.0,34,0.00,,,0.00,VWS V14.01,2013-02-24 03:49:00,
2013-02-23 19:54:00,41.0,14.8,30.21,NNE,29,4.0,10.0,34,0.00,,,0.00,VWS V14.01,2013-02-24 03:54:00,
2013-02-23 19:59:00,40.9,14.7,30.21,NE,40,0.0,10.0,34,0.00,,,0.00,VWS V14.01,2013-02-24 03:59:00,
2013-02-23 20:00:00,40.9,15.4,30.20,NNE,28,2.0,10.0,35,0.00,,,0.00,VWS V14.01,2013-02-24 04:00:00,
2013-02-23 20:04:00,40.7,14.5,30.20,NNE,15,3.0,4.0,34,0.00,,,0.00,VWS V14.01,2013-02-24 04:04:00,
2013-02-23 20:09:00,40.5,15.0,30.20,NNE,33,0.0,6.0,35,0.00,,,0.00,VWS V14.01,2013-02-24 04:09:00,
2013-02-23 20:15:00,40.2,15.4,30.21,NNE,33,0.0,6.0,36,0.00,,,0.00,VWS V14.01,2013-02-24 04:15:00,
2013-02-23 20:20:00,39.9,15.8,30.21,NNE,33,0.0,6.0,37,0.00,,,0.00,VWS V14.01,2013-02-24 04:20:00,
2013-02-23 20:25:00,39.4,15.9,30.21,NNE,33,0.0,6.0,38,0.00,,,0.00,VWS V14.01,2013-02-24 04:25:00,
2013-02-23 20:30:00,39.1,15.6,30.21,NNE,33,2.0,6.0,38,0.00,,,0.00,VWS V14.01,2013-02-24 04:30:00,
2013-02-23 20:35:00,38.9,16.1,30.21,NNE,25,4.0,6.0,39,0.00,,,0.00,VWS V14.01,2013-02-24 04:35:00,
2013-02-23 20:40:00,38.7,15.3,30.21,NNE,33,5.0,6.0,38,0.00,,,0.00,VWS V14.01,2013-02-24 04:40:00,
2013-02-23 20:45:00,39.0,14.9,30.20,NNE,13,2.0,6.0,37,0.00,,,0.00,VWS V14.01,2013-02-24 04:45:00,
2013-02-23 20:50:00,39.3,14.6,30.20,NNE,21,3.0,6.0,36,0.00,,,0.00,VWS V14.01,2013-02-24 04:50:00,
2013-02-23 20:55:00,39.5,14.8,30.21,NE,37,2.0,10.0,36,0.00,,,0.00,VWS V14.01,2013-02-24 04:55:00,
2013-02-23 21:00:00,39.8,14.4,30.21,NNE,28,7.0,12.0,35,0.00,,,0.00,VWS V14.01,2013-02-24 05:00:00,
2013-02-23 21:01:00,39.9,14.5,30.21,NNE,24,4.0,4.0,35,0.00,,,0.00,VWS V14.01,2013-02-24 05:01:00,
2013-02-23 21:06:00,39.9,14.5,30.22,NE,38,4.0,11.0,35,0.00,,,0.00,VWS V14.01,2013-02-24 05:06:00,
2013-02-23 21:11:00,40.0,14.6,30.21,North,11,4.0,11.0,35,0.00,,,0.00,VWS V14.01,2013-02-24 05:11:00,
2013-02-23 21:16:00,39.8,14.4,30.21,NNE,15,3.0,11.0,35,0.00,,,0.00,VWS V14.01,2013-02-24 05:16:00,
2013-02-23 21:21:00,39.8,14.4,30.21,NNE,12,0.0,11.0,35,0.00,,,0.00,VWS V14.01,2013-02-24 05:21:00,
2013-02-23 21:26:00,39.7,14.9,30.21,North,5,5.0,11.0,36,0.00,,,0.00,VWS V14.01,2013-02-24 05:26:00,
2013-02-23 21:30:00,39.6,14.9,30.21,NNE,27,0.0,11.0,36,0.00,,,0.00,VWS V14.01,2013-02-24 05:30:00,
2013-02-23 21:31:00,39.6,14.9,30.21,NNE,26,1.0,1.0,36,0.00,,,0.00,VWS V14.01,2013-02-24 05:31:00,
2013-02-23 21:36:00,39.4,14.7,30.21,NNW,341,1.0,2.0,36,0.00,,,0.00,VWS V14.01,2013-02-24 05:36:00,
2013-02-23 21:41:00,39.1,15.0,30.21,NNE,20,0.0,3.0,37,0.00,,,0.00,VWS V14.01,2013-02-24 05:41:00,
2013-02-23 21:46:00,38.9,14.9,30.21,NNE,20,0.0,3.0,37,0.00,,,0.00,VWS V14.01,2013-02-24 05:46:00,
2013-02-23 21:51:00,38.9,14.9,30.21,NNE,19,1.0,7.0,37,0.00,,,0.00,VWS V14.01,2013-02-24 05:51:00,
2013-02-23 21:56:00,38.8,14.8,30.21,NNE,28,4.0,7.0,37,0.00,,,0.00,VWS V14.01,2013-02-24 05:56:00,
2013-02-23 22:00:00,38.7,14.7,30.22,NNE,20,1.0,10.0,37,0.00,,,0.00,VWS V14.01,2013-02-24 06:00:00,
2013-02-23 22:01:00,38.7,14.7,30.22,NE,35,1.0,1.0,37,0.00,,,0.00,VWS V14.01,2013-02-24 06:01:00,
2013-02-23 22:06:00,38.9,14.9,30.22,NNE,30,4.0,10.0,37,0.00,,,0.00,VWS V14.01,2013-02-24 06:06:00,
2013-02-23 22:11:00,39.1,15.0,30.22,NNE,26,1.0,10.0,37,0.00,,,0.00,VWS V14.01,2013-02-24 06:11:00,
2013-02-23 22:16:00,39.1,15.0,30.22,NNE,32,0.0,10.0,37,0.00,,,0.00,VWS V14.01,2013-02-24 06:16:00,
2013-02-23 22:21:00,38.9,15.5,30.22,North,360,3.0,10.0,38,0.00,,,0.00,VWS V14.01,2013-02-24 06:21:00,
2013-02-23 22:26:00,38.7,15.3,30.22,North,5,0.0,10.0,38,0.00,,,0.00,VWS V14.01,2013-02-24 06:26:00,
2013-02-23 22:30:00,38.6,15.2,30.21,NE,34,0.0,10.0,38,0.00,,,0.00,VWS V14.01,2013-02-24 06:30:00,
2013-02-23 22:31:00,38.6,15.2,30.21,NE,35,0.0,0.0,38,0.00,,,0.00,VWS V14.01,2013-02-24 06:31:00,
2013-02-23 22:36:00,38.4,15.6,30.21,NNE,27,3.0,4.0,39,0.00,,,0.00,VWS V14.01,2013-02-24 06:36:00,
2013-02-23 22:41:00,38.3,15.5,30.21,North,355,2.0,6.0,39,0.00,,,0.00,VWS V14.01,2013-02-24 06:41:00,
2013-02-23 22:46:00,38.2,15.4,30.21,NNE,22,4.0,6.0,39,0.00,,,0.00,VWS V14.01,2013-02-24 06:46:00,
2013-02-23 22:51:00,38.1,15.9,30.21,NNE,30,0.0,6.0,40,0.00,,,0.00,VWS V14.01,2013-02-24 06:51:00,
2013-02-23 22:56:00,38.0,15.8,30.21,NNE,24,0.0,6.0,40,0.00,,,0.00,VWS V14.01,2013-02-24 06:56:00,
2013-02-23 23:00:00,37.9,15.8,30.21,NNE,13,3.0,6.0,40,0.00,,,0.00,VWS V14.01,2013-02-24 07:00:00,
2013-02-23 23:01:00,37.9,15.8,30.21,NNE,22,3.0,3.0,40,0.00,,,0.00,VWS V14.01,2013-02-24 07:01:00,
2013-02-23 23:06:00,37.8,15.7,30.21,NNE,17,0.0,5.0,40,0.00,,,0.00,VWS V14.01,2013-02-24 07:06:00,
2013-02-23 23:11:00,37.8,15.7,30.21,NNE,22,1.0,5.0,40,0.00,,,0.00,VWS V14.01,2013-02-24 07:11:00,
2013-02-23 23:16:00,37.8,16.2,30.21,NNE,33,3.0,5.0,41,0.00,,,0.00,VWS V14.01,2013-02-24 07:16:00,
2013-02-23 23:21:00,37.6,16.6,30.20,NNE,30,5.0,7.0,42,0.00,,,0.00,VWS V14.01,2013-02-24 07:21:00,
2013-02-23 23:26:00,37.6,16.0,30.21,NNE,32,3.0,7.0,41,0.00,,,0.00,VWS V14.01,2013-02-24 07:26:00,
2013-02-23 23:30:00,37.7,16.1,30.21,NNE,12,0.0,7.0,41,0.00,,,0.00,VWS V14.01,2013-02-24 07:30:00,
2013-02-23 23:31:00,37.7,16.1,30.21,NNE,12,0.0,0.0,41,0.00,,,0.00,VWS V14.01,2013-02-24 07:31:00,
2013-02-23 23:36:00,37.7,16.7,30.21,NE,38,2.0,5.0,42,0.00,,,0.00,VWS V14.01,2013-02-24 07:36:00,
2013-02-23 23:41:00,37.7,16.1,30.21,NNE,14,2.0,7.0,41,0.00,,,0.00,VWS V14.01,2013-02-24 07:41:00,
2013-02-23 23:46:00,38.1,15.9,30.21,NNE,28,8.0,11.0,40,0.00,,,0.00,VWS V14.01,2013-02-24 07:46:00,
2013-02-23 23:51:00,38.6,15.8,30.21,North,9,3.0,12.0,39,0.00,,,0.00,VWS V14.01,2013-02-24 07:51:00,
2013-02-23 23:56:00,38.8,16.6,30.21,NE,40,4.0,12.0,40,0.00,,,0.00,VWS V14.01,2013-02-24 07:56:00,